This is the latest recevied weather packets stored in our database for station/object N0MPM-4. If no packets are shown the sender has not sent any weather packets the latest 10 day(s).
| Time | Temp. | Humidity | Pressure | Rain* | Wind** | Luminosity | Snow |
|---|---|---|---|---|---|---|---|
| 1778130272 | 5° C | 67% | 1016.6 hPa | 0 mm | - | - | - |
| 1778129972 | 4.44° C | 69% | 1016.6 hPa | 0 mm | - | - | - |
| 1778129672 | 4.44° C | 71% | 1016.7 hPa | 0 mm | - | - | - |
| 1778129372 | 3.89° C | 74% | 1016.7 hPa | 0 mm | - | - | - |
| 1778129072 | 3.33° C | 75% | 1016.6 hPa | 0 mm | - | - | - |
| 1778128772 | 3.33° C | 76% | 1016.7 hPa | 0 mm | - | - | - |
| 1778128472 | 2.78° C | 75% | 1016.8 hPa | 0 mm | - | - | - |
| 1778128172 | 2.78° C | 75% | 1016.8 hPa | 0 mm | - | - | - |
| 1778127872 | 3.33° C | 75% | 1016.8 hPa | 0 mm | - | - | - |
| 1778127572 | 3.33° C | 75% | 1016.8 hPa | 0 mm | - | - | - |
| 1778127272 | 3.33° C | 75% | 1016.8 hPa | 0 mm | - | - | - |
| 1778126972 | 3.33° C | 76% | 1016.9 hPa | 0 mm | - | - | - |
| 1778126672 | 3.33° C | 76% | 1016.8 hPa | 0 mm | - | - | - |
| 1778126372 | 3.33° C | 75% | 1016.8 hPa | 0 mm | - | - | - |
| 1778126073 | 3.33° C | 74% | 1016.9 hPa | 0 mm | - | - | - |
| 1778125773 | 3.33° C | 73% | 1016.9 hPa | 0 mm | - | - | - |
| 1778125472 | 3.33° C | 73% | 1016.9 hPa | 0 mm | - | - | - |
| 1778125173 | 3.33° C | 72% | 1017 hPa | 0 mm | - | - | - |
| 1778124873 | 3.33° C | 71% | 1016.9 hPa | 0 mm | - | - | - |
| 1778124572 | 3.89° C | 71% | 1017 hPa | 0 mm | - | - | - |
| 1778124273 | 3.89° C | 70% | 1017 hPa | 0 mm | - | - | - |
| 1778123973 | 3.89° C | 70% | 1017.1 hPa | 0 mm | - | - | - |
| 1778123673 | 3.89° C | 69% | 1017.1 hPa | 0 mm | - | - | - |
| 1778123373 | 4.44° C | 67% | 1017 hPa | 0 mm | - | - | - |
| 1778123073 | 4.44° C | 66% | 1017 hPa | 0 mm | - | - | - |
* Rain latest hour (hover to see other rain measurements)
** Current wind speed in m/s (hover to see current wind gust speed)